Weather History for KBDE - March, 2014

Change the Weather History Date:

Saturday, March 29, 2014

  Actual Average Record
Temperature  
Mean Temperature 20 °F -  
Max Temperature 37 °F 41 °F 67 °F (1986)
Min Temperature 3 °F 19 °F -12 °F (1969)
Degree Days  
Heating Degree Days 45    
Moisture  
Dew Point 10 °F    
Average Humidity 55    
Maximum Humidity 80    
Minimum Humidity 40    
Precipitation  
Precipitation 0.00 in - - ()
Sea Level Pressure  
Sea Level Pressure 30.13 in    
Wind  
Wind Speed 6 mph (SSE)    
Max Wind Speed 16 mph    
Max Gust Speed 25 mph    
Visibility 10 miles    
Events      
Averages and records for this station are not official NWS values.
T = Trace of Precipitation, MM = Missing Value Source: NWS Daily Summary

Daily Weather History Graph

Daily Weather History Graph

Search for Another Location

Airport or City:

Trip Planner

Search our weather history database for the weather conditions in past years. The results will help you decide how hot, cold, wet, or windy it might be!

Date:

Astronomy

Mar. 29, 2014 Rise Set
Actual Time 7:02 AM CDT 7:44 PM CDT
Civil Twilight 6:30 AM CDT 8:16 PM CDT
Nautical Twilight 5:52 AM CDT 8:54 PM CDT
Astronomical Twilight 5:13 AM CDT 9:34 PM CDT
Moon 6:17 AM CDT (3/29) 6:48 PM CDT (3/29)
Length of Visible Light 13h 46m
Length of Day
12h 42m
Waning Crescent, 2% of the Moon is Illuminated
Mar 29
Waning Crescent
Mar 30
New
Apr 7
First Quarter
Apr 15
Full
Apr 22
Last Quarter

Hourly Weather History & Observations

Time (CDT) Temp. Windchill Dew Point Humidity Pressure Visibility Wind Dir Wind Speed Gust Speed Precip Events Conditions
12:53 AM 7.0 °F - 1.0 °F 77% 30.30 in 10.0 mi Calm Calm - N/A   Clear
1:53 AM 5.0 °F -2.1 °F -0.9 °F 76% 30.29 in 10.0 mi ESE 3.5 mph - N/A   Clear
2:53 AM 3.0 °F - -2.0 °F 80% 30.29 in 10.0 mi Calm Calm - N/A   Scattered Clouds
3:53 AM 6.1 °F -2.8 °F -0.0 °F 76% 30.29 in 10.0 mi ESE 4.6 mph - N/A   Overcast
4:53 AM 8.1 °F 1.4 °F 1.0 °F 73% 30.28 in 10.0 mi SSE 3.5 mph - N/A   Overcast
5:53 AM 10.0 °F - 1.9 °F 70% 30.28 in 10.0 mi Calm Calm - N/A   Overcast
6:53 AM 14.0 °F 6.5 °F 3.9 °F 64% 30.27 in 10.0 mi South 4.6 mph - N/A   Overcast
7:53 AM 16.0 °F 8.8 °F 5.0 °F 62% 30.27 in 10.0 mi South 4.6 mph - N/A   Overcast
8:53 AM 19.0 °F 10.0 °F 6.1 °F 57% 30.26 in 10.0 mi South 6.9 mph - N/A   Overcast
9:53 AM 23.0 °F 14.7 °F 7.0 °F 50% 30.24 in 10.0 mi South 6.9 mph - N/A   Overcast
10:53 AM 26.1 °F 17.6 °F 6.1 °F 43% 30.22 in 10.0 mi South 8.1 mph - N/A   Overcast
11:53 AM 30.0 °F 20.5 °F 9.0 °F 41% 30.19 in 10.0 mi South 11.5 mph - N/A   Overcast
12:53 PM 32.0 °F 23.6 °F 12.0 °F 44% 30.16 in 10.0 mi South 10.4 mph 20.7 mph N/A   Partly Cloudy
1:53 PM 34.0 °F 25.0 °F 12.0 °F 40% 30.13 in 10.0 mi South 12.7 mph 20.7 mph N/A   Partly Cloudy
2:53 PM 35.1 °F 25.2 °F 15.1 °F 44% 30.09 in 10.0 mi South 16.1 mph 23.0 mph N/A   Overcast
3:53 PM 36.0 °F 27.1 °F 16.0 °F 44% 30.06 in 10.0 mi South 13.8 mph - N/A   Overcast
4:53 PM 37.9 °F 32.1 °F 18.0 °F 45% 30.01 in 10.0 mi SSE 8.1 mph - N/A   Overcast
5:53 PM 37.9 °F 29.2 °F 17.1 °F 43% 29.97 in 10.0 mi SSE 15.0 mph 24.2 mph N/A   Overcast
6:53 PM 37.9 °F 31.5 °F 19.0 °F 47% 29.94 in 10.0 mi SSE 9.2 mph 23.0 mph N/A   Overcast
7:53 PM 37.9 °F 31.5 °F 19.0 °F 47% 29.93 in 10.0 mi SSE 9.2 mph 17.3 mph N/A   Overcast
8:53 PM 37.0 °F 28.9 °F 19.0 °F 48% 29.92 in 10.0 mi SSE 12.7 mph 20.7 mph N/A   Overcast
9:53 PM 37.0 °F 27.7 °F 18.0 °F 46% 29.91 in 10.0 mi South 16.1 mph 25.3 mph N/A   Overcast
10:53 PM 35.1 °F 25.5 °F 19.9 °F 54% 29.92 in 10.0 mi South 15.0 mph 24.2 mph N/A   Overcast
11:53 PM 35.1 °F 26.4 °F 21.9 °F 59% 29.90 in 10.0 mi South 12.7 mph 25.3 mph N/A   Overcast